#timestamp,LO_Frequency,Hit,StdDev 
1508119215.1,286047002.4,N
1508119216.0,286047002.4,N
1508119235.8,286047001.6,N
1508119255.6,286047005.3,N
1508119275.5,286047002.9,N
1508119295.3,286047005.8,N
1508119315.1,286047002.7,N
1508119335.9,286047000.7,N
1508119355.7,286047001.4,N
1508119375.5,286047001.5,N
1508119395.4,286047001.4,N
1508119415.2,286047001.4,N
1508119435.0,286047003.4,N
1508119435.9,286047003.4,N
1508119455.8,286047003.9,N
1508119475.6,286047005.0,N
1508119495.4,286047003.3,N
1508119515.3,286047002.7,N
1508119535.1,286046999.9,N
1508119536.0,286046999.9,N
1508119555.8,286047001.5,N
1508119575.6,286046999.8,N
1508119595.5,286046996.7,N
1508119615.3,286046996.3,N
1508119635.1,286046994.0,N
1508119655.9,286046992.9,N
1508119675.7,286046989.8,Y
1508119695.5,286046987.8,P
1508119715.4,286046985.0,N
1508119735.2,286046985.2,N
1508119755.0,286046980.9,N
1508119755.9,286046980.9,N
1508119775.8,286046979.5,N
1508119795.6,286046978.1,Y
1508119815.4,286046990.8,P
1508119835.3,286046991.6,P
1508119855.1,286046990.0,P
1508119875.8,286046985.4,Y
1508119895.7,286046995.1,P
1508119915.5,286046993.3,N
1508119935.3,286046997.9,N
1508119955.2,286046996.0,N
1508119975.9,286046992.0,N
1508119995.7,286046994.5,N
1508120015.6,286046994.2,N
1508120035.4,286046994.1,N
1508120055.2,286046994.4,N
1508120075.1,286046993.4,Y
1508120076.0,286046993.4,P
1508120095.8,286046999.8,N
1508120115.6,286047000.2,N
1508120135.5,286047001.9,N
1508120155.3,286047002.4,N
1508120175.1,286047000.7,N
1508120195.9,286047004.4,N
1508120215.7,286047003.7,N
1508120235.5,286047003.1,N
1508120255.4,286047003.6,N
1508120275.2,286047007.3,N
1508120295.0,286047003.4,N
1508120295.9,286047003.4,N
1508120315.8,286047002.5,N
1508120335.6,286046997.0,N
1508120355.4,286047004.9,N
1508120375.3,286047013.1,Y
1508120395.1,286047017.1,P
1508120396.0,286047017.1,N
1508120415.8,286047018.0,N
1508120435.7,286047018.9,N
1508120455.5,286047023.1,Y
1508120475.3,286047007.5,P
1508120495.2,286047006.9,N
1508120515.9,286047008.7,N
1508120535.7,286047013.2,Y
1508120555.6,286047005.8,P
1508120575.4,286047002.0,N
1508120595.2,286047002.2,N
1508120615.1,286047002.6,N
1508120616.0,286047002.6,N
1508120635.8,286047001.5,N
1508120655.6,286047006.0,N
1508120675.5,286047007.2,N
1508120695.3,286047006.3,N
1508120715.1,286047006.9,N
1508120735.8,286047006.9,N
1508120755.7,286047006.7,N
1508120775.5,286047005.7,N
1508120795.3,286047010.8,Y
1508120815.2,286047003.8,P
1508120835.0,286047005.3,P
1508120835.9,286047005.3,P
1508120855.8,286047010.5,Y
1508120875.6,286047004.3,P
1508120895.4,286047002.0,P
1508120915.2,286047005.4,P
1508120935.1,286047002.9,N
1508120936.0,286047002.9,N
1508120955.8,286047000.1,N
1508120975.6,286046996.9,N
1508120995.5,286046998.3,N
1508121015.3,286047004.4,N
1508121035.1,286047002.7,N
1508121055.9,286047004.1,N
1508121075.7,286047003.7,N
1508121095.5,286047002.0,N
1508121115.4,286047002.2,N
1508121135.2,286047000.3,N
1508121155.0,286047000.6,N
1508121155.9,286047000.6,N
1508121175.8,286047001.5,N
1508121195.6,286047002.1,N
1508121215.4,286047001.5,N
1508121235.2,286047001.6,N
1508121255.1,286047000.2,N
1508121256.0,286047000.2,N
1508121275.8,286046999.6,N
1508121295.6,286047002.5,N
1508121315.5,286047001.7,N
1508121335.3,286047001.3,N
1508121355.1,286047001.5,N
1508121375.9,286047001.3,N
1508121395.7,286047001.5,N
1508121415.5,286047003.1,N
1508121435.4,286047002.0,N
1508121455.2,286046998.4,N
1508121475.0,286047002.8,N
1508121475.9,286047002.8,N
1508121495.8,286047000.0,N
1508121515.6,286046997.5,N
1508121535.4,286046995.2,Y
1508121555.3,286046994.6,P
1508121575.1,286046992.2,N
1508121576.0,286046992.2,N
1508121595.8,286046992.8,N
1508121615.7,286046992.2,N
1508121635.5,286046991.3,N
1508121655.3,286046992.4,N
1508121675.2,286046992.8,N
1508121695.9,286046992.8,N
1508121715.7,286046990.8,Y
1508121735.6,286046999.0,P
1508121755.4,286046997.9,N
1508121775.2,286046995.4,N
1508121795.0,286046995.8,N
1508121796.0,286046995.8,N
1508121815.8,286046996.7,N
1508121835.6,286046997.5,N
1508121855.4,286046997.6,N
1508121875.3,286046996.1,N
1508121895.1,286046994.9,Y
1508121915.8,286047000.7,P
1508121935.7,286047001.5,N
1508121955.5,286047004.0,N
1508121975.3,286047004.3,N
1508121995.2,286047004.3,N
1508122015.9,286047005.3,N
1508122035.7,286047007.2,N
1508122055.6,286047005.8,N
1508122075.4,286047001.6,N
1508122095.2,286047002.8,N
1508122115.1,286046999.8,N
1508122116.0,286046999.8,N
1508122135.8,286046999.7,N
1508122155.6,286047001.2,N
1508122175.5,286046999.0,N
1508122195.3,286046998.9,N
1508122215.1,286046996.4,N
1508122235.9,286046998.0,N
1508122255.7,286046999.0,N
1508122275.5,286047002.8,N
1508122295.3,286047000.2,N
1508122315.2,286047002.7,N
1508122335.0,286046999.7,N
1508122335.9,286046999.7,N
1508122355.7,286047003.9,N
1508122375.6,286047005.5,N
1508122395.4,286047006.4,N
1508122415.2,286047010.1,Y
1508122435.1,286047008.1,P
1508122436.0,286047008.1,N
1508122455.8,286047010.6,P
1508122475.7,286047010.3,Y
1508122495.5,286047003.2,P
1508122515.3,286047001.5,N
1508122535.1,286047000.2,N
1508122555.9,286047001.8,N
1508122575.7,286047004.0,N
1508122595.5,286047002.3,N
1508122615.4,286046999.2,N
1508122635.2,286046997.3,N
1508122655.0,286046997.7,N
1508122655.9,286046997.7,N
1508122675.8,286046993.8,N
1508122695.6,286046991.8,N
1508122715.4,286046990.1,N
1508122735.3,286046994.1,N
1508122755.1,286046997.1,N
1508122756.0,286046997.1,N
1508122775.8,286046999.0,N
1508122795.7,286046998.9,N
